Location: Goheenville
(40.9070°N, 79.3720°W)
Time: 23:07:35
(UTC-05:00)

Daily predictions for brighter satellites

Satellite Brightness Start Highest point End
(mag) Time Altitude Azimuth Time Altitude Azimuth Time Altitude Azimuth
BREEZE M DEB (TANK) 4.0 17:43:24 10° WSW 17:47:30 87° NNW 18:04:12 10° ENE
AQUARIUS 4.2 17:45:11 10° SSE 17:49:40 88° ENE 17:54:12 10° NNW
Cosmos 1674 3.9 17:47:13 10° SSW 17:50:49 45° W 17:54:25 10° N
IRS-1A Rocket 4.4 17:46:51 10° SE 17:52:13 54° ENE 17:57:42 10° N
Cosmos 2366 rocket 4.3 17:47:07 10° N 17:53:02 43° ENE 17:58:51 10° SSE
NOSS 3-4 (A) 4.2 17:47:11 10° NNW 17:53:51 44° NE 18:00:58 10° ESE
NOSS 3-4 (C) 4.2 17:47:18 10° NNW 17:53:56 44° NE 18:01:03 10° ESE
SeaSat 1 3.2 17:49:58 10° SSE 17:54:49 59° WSW 17:59:43 10° NNW
Cosmos 1400 Rocket 2.9 17:54:00 10° S 17:58:02 90° SE 18:02:11 10° N
Tiangong 1 0.5 17:56:49 10° WNW 17:59:17 64° N 18:01:43 10° E
ALOS 2.8 17:56:31 10° SE 18:00:47 37° ENE 18:05:05 10° N
Cosmos 1766 Rocket 4.0 17:57:18 10° SSE 18:01:17 38° E 18:05:18 10° NNE
EO 1 Del DPAF 4.4 17:58:33 10° NE 18:01:40 23° E 18:04:46 10° SSE
Cosmos 1626 3.1 17:58:52 10° SSE 18:02:00 26° E 18:05:10 10° NNE
Landsat 4 4.3 18:03:28 10° NNE 18:06:57 36° E 18:10:24 10° SSE
CORIOLIS 4.4 18:03:36 10° S 18:08:56 74° WSW 18:14:17 10° NNW
Okean 3 Rocket 3.7 18:04:34 10° S 18:09:07 89° W 18:13:40 10° N
MOS 1 4.4 18:03:53 10° SE 18:09:17 51° ENE 18:14:44 10° N
Meteor 2-2 Rocket 4.4 18:04:07 10° N 18:09:40 49° ENE 18:15:07 10° SSE
NOAA 12 4.4 18:06:56 10° SE 18:11:52 44° ENE 18:16:50 10° N
Cosmos 1656 Rocket 3.7 18:07:49 10° NNW 18:13:12 55° ENE 18:18:37 10° SE
SKYMED 2 3.6 18:09:03 10° NNE 18:13:21 58° E 18:17:37 10° S
Cosmos 2369 Rocket 3.8 18:09:40 10° NW 18:14:55 40° WSW 18:20:10 10° S
Cosmos 1703 4.2 18:14:40 10° SSE 18:18:05 28° E 18:21:30 10° NNE
CZ-4 R/B 4.4 18:15:54 10° SSE 18:20:01 90° ENE 18:24:10 10° NNW
YAOGAN 1 2.6 18:15:43 10° SSE 18:20:02 87° WSW 18:24:24 10° NNW
Cosmos 1300 2.9 18:16:46 10° NNW 18:20:36 74° W 18:24:23 10° S
Cosmos 1151 Rocket 4.2 18:18:06 10° NNE 18:21:33 22° ENE 18:24:59 10° SE
ERS-2 2.9 18:19:04 10° SE 18:22:19 30° ENE 18:25:37 10° N
Cosmos 1943 Rocket 3.1 18:16:58 10° NNW 18:22:23 52° WSW 18:27:43 10° S
Cosmos 864 Rocket 4.5 18:20:36 10° N 18:26:57 76° E 18:33:15 10° SSE
SL-24 R/B - RUBIN 2 3.4 18:22:26 10° NNW 18:26:58 72° NE 18:31:15 10° SE
Cosmos 2221 4.4 18:28:56 10° NNW 18:32:55 35° W 18:36:52 10° SSW
Cosmos 2058 3.5 18:29:29 10° SSE 18:33:16 34° E 18:36:33 13° NNE
CZ-2C R/B 4.4 18:29:05 10° N 18:33:43 58° WNW 18:38:15 10° SSW
SL-14 R/B 4.4 18:31:08 10° SSW 18:34:57 45° W 18:38:46 10° N
BREEZE-M R/B 4.0 18:36:22 10° WNW 18:38:05 19° NNW 18:38:37 17° N
OAO 3 Rocket 4.3 18:36:02 10° WSW 18:40:21 37° S 18:43:58 14° SE
FENGYUN 3A 3.6 18:37:33 10° SSE 18:42:54 87° WSW 18:48:18 10° NNW
Cosmos 44 3.4 18:40:05 10° SW 18:44:21 63° NW 18:48:03 14° NNE
Cosmos 371 Rocket 3.8 18:40:02 10° S 18:44:26 37° ESE 18:46:37 24° NE
CZ-4 R/B 3.8 18:46:44 10° SSW 18:50:18 26° W 18:53:55 10° NW
Cosmos 1408 Rocket 3.9 18:47:57 10° SSW 18:52:11 64° W 18:56:29 10° N
Cosmos 2151 3.0 18:48:08 10° S 18:52:17 54° E 18:55:25 17° NNE
Cosmos 1515 Rocket 3.6 18:48:40 10° N 18:52:56 52° E 18:57:09 10° SSE
SPOT 3 Rocket 3.6 18:52:28 10° S 18:57:36 78° WSW 19:02:47 10° NNW
ERBS 4.5 18:55:46 10° NNW 18:56:54 15° N 18:56:54 15° N
Cosmos 1777 Rocket 4.3 18:55:09 10° NNW 19:00:22 69° WSW 19:05:35 10° S
COSMO-SKYMED 1 3.9 18:57:16 10° N 19:01:21 40° WNW 19:05:23 10° SW
Meteor 1-27 4.2 18:56:02 10° N 19:01:47 90° W 19:07:35 10° S
Meteor 1-11 4.4 18:58:00 10° SSW 19:03:35 75° W 19:09:16 10° N
Cosmos 1346 Rocket 3.2 19:00:45 10° NNW 19:04:37 63° W 19:08:27 10° S
Cosmos 1500 Rocket 3.5 19:00:51 10° S 19:05:15 64° E 19:07:50 24° NNE
PKM 3.8 19:03:34 10° NW 19:06:19 57° NE 19:06:37 54° ENE
H-2A R/B 2.6 19:04:33 10° SSE 19:08:20 90° WSW 19:12:13 10° NNW
COSMOS 2406 3.1 19:03:44 10° SSW 19:09:28 86° ESE 19:13:27 21° NNE
USA 81 3.9 19:04:34 10° S 19:09:48 74° E 19:15:05 10° N
Meteor 2-15 4.3 19:07:40 10° S 19:13:44 68° E 19:19:47 10° NNE
Cosmos 2228 Rocket 3.2 19:11:41 10° N 19:16:16 79° W 19:20:50 10° S
Cosmos 1455 2.3 19:14:35 10° NNW 19:18:26 72° W 19:22:13 10° S
Cosmos 2208 Rocket 4.0 19:13:33 10° S 19:18:42 58° ESE 19:19:41 50° ENE
Cosmos 44 Rocket 4.3 19:14:22 10° WSW 19:18:47 40° NW 19:21:35 20° N
FengYun 1-2 T 4.2 19:13:44 10° SSE 19:19:22 87° WSW 19:25:01 10° NNW
Cosmos 1743 Rocket 3.8 19:15:36 10° SSW 19:19:55 66° W 19:23:39 14° N
Cosmos 1898 Rocket 4.5 19:25:01 10° N 19:28:12 32° NNE 19:28:12 32° NNE
Tiangong 1 4.0 19:31:16 10° W 19:31:42 13° W 19:31:42 13° W
GEOS 3 Rocket 3.5 19:35:22 68° E 19:35:53 73° NE 19:41:16 10° NNW
Cosmos 332 Rocket 4.4 19:34:30 10° SW 19:39:18 55° WNW 19:41:20 32° N
Meteor 2-15 Rocket 4.3 19:34:29 10° S 19:40:38 89° W 19:46:47 10° N
Cosmos 1821 Rocket 4.1 19:38:19 10° N 19:44:28 76° W 19:50:41 10° S
Lacrosse 5 3.1 19:39:57 10° SSW 19:42:42 29° S 19:42:42 29° S
Cosmos 1535 Rocket 4.4 19:39:24 10° N 19:45:34 87° W 19:51:40 10° S
Envisat 4.4 19:51:21 27° N 19:51:21 27° N 19:53:36 10° N
Cosmos 1570 Rocket 4.4 19:48:06 10° SSW 19:53:21 61° WNW 19:54:22 51° NNW
CZ-4C R/B 3.7 20:07:28 10° SSW 20:09:27 25° SSW 20:09:27 25° SSW
